Regional Weather Roundup
Issued by NWS

Home | Current Version | Previous Version | Text Only | Print | Product List | Glossary On
Versions: 1 2 3 4 5 6 7 8 9 10 11 12 13 14 15 16 17 18 19 20 21 22 23 24 25 26 27 28 29 30 31 32 33 34 35 36 37 38 39 40 41 42 43 44 45 46 47 48 49 50
000
ASUS43 KMKX 111520
RWRWI

WISCONSIN REGIONAL WEATHER ROUNDUP
NATIONAL WEATHER SERVICE MILWAUKEE/SULLIVAN WI
900 AM CST MON DEC 11 2017

NOTE: "FAIR" INDICATES FEW OR NO CLOUDS BELOW 12,000 FEET WITH NO
SIGNIFICANT WEATHER AND/OR OBSTRUCTIONS TO VISIBILITY.

WIZ001-002-006>008-014>016-023>028-111600-
NORTHWEST WISCONSIN

CITY           SKY/WX    TMP DP  RH WIND       PRES   REMARKS
SUPERIOR ARPT  MIX PCPN  22  21  97 CALM      29.75R VSB 1
ASHLAND        LGT SNOW  22  19  89 CALM      29.75R FOG
HAYWARD        CLOUDY    23  19  85 S3        29.72R
SIREN          CLOUDY    26  24  92 S3        29.73S
CUMBERLAND     CLOUDY    25  23  93 S5        29.71F FOG     WCI  19
RICE LAKE      CLOUDY    25  24  96 CALM      29.73F FOG
CHETEK         CLOUDY    24  23  93 SE5       29.73F WCI  19
LADYSMITH      CLOUDY    24  22  93 S6        29.74F WCI  17
EAU CLAIRE     CLOUDY    25  22  88 SE3       29.74S FOG
MENOMONIE      CLOUDY    27  25  93 E5        29.73F FOG     WCI  21
NEW RICHMOND   CLOUDY    28  26  93 CALM      29.72S FOG
OSCEOLA        LGT SNOW  28  28 100 SE5       29.75S WCI  23
$$

WIZ003>005-009-010-017-018-111600-
NORTH CENTRAL WISCONSIN

CITY           SKY/WX    TMP DP  RH WIND       PRES   REMARKS
MANITOWISH WTR CLOUDY    19  19 100 S7        29.70F FOG     WCI   9
ARBOR VITAE    CLOUDY    22  20  93 S8        29.71F FOG     WCI  12
WOODRUFF       CLOUDY    22  20  93 S8        29.71F FOG     WCI  12
RHINELANDER    CLOUDY    20  19  96 S7        29.73F FOG     WCI  11
EAGLE RIVER    LGT SNOW  18  15  89 S8        29.71F WCI   8
LAND O LAKES   LGT SNOW  18  16  89 S5        29.73F VSB 1   WCI  11
PHILLIPS       CLOUDY    20  20  98 S5        29.70F WCI  14
TOMAHAWK       CLOUDY    20  18  93 CALM      29.73F FOG
MEDFORD        CLOUDY    21  19  94 S6        29.72S WCI  13
MERRILL        CLOUDY    21  20  96 SE3       29.76F FOG
$$

WIZ029-030-035-036-043>047-111600-
CENTRAL WISCONSIN

CITY           SKY/WX    TMP DP  RH WIND       PRES   REMARKS
WAUSAU         CLOUDY    21  20  96 SE7       29.74F FOG     WCI  12
MOSINEE        CLOUDY    21  21 100 SE7       29.76F FOG     WCI  13
MARSHFIELD     CLOUDY    23  21  92 SE7       29.72F FOG     WCI  15
STEVENS POINT  CLOUDY    21  21 100 SE5       29.78F WCI  14
WAUPACA        CLOUDY    25  22  89 SE6       29.81F FOG     WCI  18
WAUTOMA        CLOUDY    24  22  91 SE6       29.80F WCI  17
WISC RAPIDS    CLOUDY    24  21  88 SE6       29.78F WCI  17
CAMP DOUGLAS   CLOUDY    27  23  86 SE7       29.75F WCI  19
$$

WIZ011>013-019>022-031-037>040-048>050-111600-
NORTHEAST WISCONSIN

CITY           SKY/WX    TMP DP  RH WIND       PRES   REMARKS
ANTIGO         CLOUDY    19  18  98 S7        29.76F FOG     WCI  10
SHAWANO        CLOUDY    24  21  90 SE5       29.83F FOG     WCI  18
OCONTO         CLOUDY    23  21  92 S6        29.86S WCI  16
STURGEON BAY   LGT SNOW  23  19  86 S8        29.86F FOG     WCI  14
GREEN BAY      CLOUDY    23  22  96 S8        29.86F WCI  14
MANITOWOC      MIX PCPN  24  20  84 S10       29.87F WCI  14
APPLETON       LGT SNOW  23  19  86 S12       29.82F WCI  12
CLINTONVILLE   CLOUDY    23  21  93 S8        29.82F FOG     WCI  14
OSHKOSH        CLOUDY    23  20  88 S9        29.82F WCI  13
$$

WIZ032>034-041-042-053>061-111600-
SOUTHWEST WISCONSIN

CITY           SKY/WX    TMP DP  RH WIND       PRES   REMARKS
LA CROSSE      CLOUDY    28  23  81 CALM      29.75F
SPARTA         CLOUDY    28  23  84 CALM      29.75F
VIROQUA        CLOUDY    25  24  96 SE7       29.73F WCI  17
BOSCOBEL       MOSUNNY   26  23  88 CALM      29.77F
PRAIRIE DU CHI CLOUDY    29  23  76 E7        29.75F WCI  22
PLATTEVILLE    CLOUDY    29  26  90 SE9       29.76F WCI  20
$$

WIZ056-057-062-063-064-067-068-111600-
SOUTH CENTRAL WISCONSIN

CITY           SKY/WX    TMP DP  RH WIND       PRES   REMARKS
REEDSBURG      PTSUNNY   26  23  90 SE3       29.77F
BARABOO/DELLS  CLOUDY    26  22  85 S5        29.77F WCI  20
LONE ROCK      CLOUDY    25  23  92 E7        29.79F FOG     WCI  17
MINERAL POINT  CLOUDY    28  28 100 SE10      29.75F WCI  19
MADISON        PTSUNNY   26  22  84 S10       29.80F WCI  16
MIDDLETON      MOSUNNY   28  23  84 SE10      29.79F WCI  18
WATERTOWN      CLOUDY    25  23  92 S8        29.82F WCI  17
MONROE         CLOUDY    28  25  86 SE12      29.78F WCI  18
JANESVILLE     PTSUNNY   30  25  80 SE10      29.81F WCI  21
$$

WIZ051-052-058>065-066-070>072-111600-
SOUTHEAST WISCONSIN

CITY           SKY/WX    TMP DP  RH WIND       PRES   REMARKS
MILWAUKEE      CLOUDY    27  23  85 S9        29.87F WCI  18
WAUKESHA       CLOUDY    23  19  86 S6        29.86F WCI  16
MILWAUKEE/TIMM CLOUDY    25  19  80 S8        29.87F WCI  16
RACINE         CLOUDY    27  23  85 S6        29.89F WCI  20
BURLINGTON     CLOUDY    35  33  94 S6        29.86F WCI  30
KENOSHA        CLOUDY    28  22  78 S8        29.87F WCI  20
FOND DU LAC    CLOUDY    25  19  78 S9        29.82F WCI  15
SHEBOYGAN      CLOUDY    24  22  91 S10       29.85F FOG     WCI  14
WEST BEND      CLOUDY    25  23  93 S5        29.84F WCI  19
JUNEAU         CLOUDY    24  21  89 SE9       29.82F WCI  14
$$

LSZ147-162-111600-
LAKE SUPERIOR

STATION/POSITION TIME  TEMP    WIND        PRES    WAVE
                       AIR SEA DIR/SP/G            HT/PER
                 (UTC) (F)     (DEG/KT/KT) (MB)    (FT/S)
DEVILS ISLAND    1500   23     190/  5/  6 1008.4S
SAXON HARBOR     1440   24                 1006.8S
$$

LMZ867-665-643>646-111600-
LAKE MICHIGAN

STATION/POSITION TIME  TEMP    WIND        PRES    WAVE
                       AIR SEA DIR/SP/G            HT/PER
                 (UTC) (F)     (DEG/KT/KT) (MB)    (FT/S)
NORTHPORT PIER   1440   22     220/  2/  5 1012.2S
KEWAUNEE LAKESHO 1500   24     200/  7/ 10 1010.8
SHEBOYGAN LAKESH 1500   26     200/ 12/ 14 1012.1F
PORT WASHINGTON  1440   26     200/  8/ 10 1012.9F
MILWAUKEE LAKESH 1500   27     190/ 10/ 11   N/A
KENOSHA   LAKESH 1500   28     190/  7/ 13 1011.9
$$

TC  - TEMPERATURE IN CELSIUS
VSB - VISIBILITY IN STATUTE MILES
WCI - WIND CHILL INDEX
HX  - HEAT INDEX





USA.gov is the U.S. government's official web portal to all federal, state and local government web resources and services.